STARLINK-2068, 47722

Orbit data source: Space-Track

STARLINK-2068, 47722 is a payload satellite owned by SpaceX/Seattle (US) in LEO that was launched on Thu, 04 Mar 2021 UTC via an FALCON 9 launch vehicle from the Air Force Eastern Test Range (AFETR). Payload-class satellites include a variety of spacecraft equipped with specific instruments for various scientific and technological missions. These include communications satellites like Starlink; space stations such as the ISS; scientific satellites like the Hubble; Earth observation satellites from companies like Planet Labs, Umbra, and HawkEye 360; GPS; miniature CubeSats for education and research; and military/defense satellites.

Loading next visibility...
Identifier
47722, 2021-017A
Orbit
LEO
Country
Flag of USUS
Related business
Manufacturer
SpaceX/Seattle
Mission
Operational Commercial Communications
Bus & Motor
STARLINK, Unknown motor
Mass
260 kg wet, ~248 kg dry
Launch date (UTC)
2021-03-04 (5 years ago)
Launch vehicle
FALCON 9
Launch site
Air Force Eastern Test Range (AFETR)
Object type
Payload
Rocket body
Debris
Shape & HBR
Box + 1 Pan, 10.1 m
Radar Cross Section
13.562 m², Large (>1 m²)

Expand to show TLE details & history
Last TLE update: 14 hours ago

TLE from 14 hours ago
0 STARLINK-2068
1 47722U 21017A   25346.95178929 -.00003206  00000-0 -19645-3 0  9994
2 47722  53.0536 226.2419 0001275  87.7439 272.3696 15.06391714264919
Epoch: 2025-12-12T22:50Z
TLE epoch observation values (Epoch: 2025-12-12T22:50:34.594Z)
Latitude
-0.00003°
Longitude
161.7117°
Altitude
548.08 km
Speed
7.589 km/s
True Right ascension
15h 04m 58s
True Declination
0° 00' 00"
Sunlit
Object was in daylight at epoch
Visualization orbit readout
Latitude
Unknown
Longitude
Unknown
Altitude
Unknown
Speed
Unknown
Apparent Right ascension
Unknown
Apparent Declination
Unknown
Sunlit
N/A
Visualization observer readout
Local Sidereal Time
11:04:18
Azimuth
Unknown
Elevation
Unknown
Doppler factor
Unknown
Orbital elements
Apogee altitude
548.391 km
Perigee altitude
546.625 km
Semi-major axis
6,925.645 km
Eccentricity
0.00013
Inclination
53.0536°
RAAN
226.2419°
Arg. of periapsis
87.7439°
True anomaly
272.355°
Mean anomaly
272.3696°
Eccentric anomaly
272.3623°
Mean motion
3.76576 °/min
Orbital period
95.6 mins
BSTAR
-0.00019645
Loading maneuver chart data...
Computing Atmospheric mass density...
Loading historical data...
Loading historical data...
Loading historical data...
Loading historical data...
Loading historical data...
Loading historical data...
Loading historical data...

Documentation

Showing up to 5 results
|